CW7164 Weather Reports


Display with metric or nautical units.
time (UTC)temp
F
wind
direction
speed
MPH
gust
MPH
rain 1hr
in
rain 24hr
in
rain mn
in
humidity
%
barometer
mb
20260506081640 44 0 0.0 0.0 0.00 0.00 0.00 60 1010.8
20260506080740 44 0 0.0 0.0 0.00 0.00 0.00 59 1010.9
20260506073139 46 323 0.0 1.0 0.00 0.00 0.00 56 1010.6
20260506072239 46 318 0.0 2.0 0.00 0.00 0.00 54 1010.4
20260506071338 46 328 0.0 1.0 0.00 0.00 0.00 54 1010.4
20260506050739 50 351 0.0 2.0 0.00 0.00 0.00 47 1009.8
20260506044939 51 340 0.0 2.0 0.00 0.00 0.00 47 1009.8
20260506044039 51 306 0.0 3.0 0.00 0.00 0.00 47 1009.8
20260506043139 51 331 0.0 4.0 0.00 0.00 0.00 47 1009.9
20260506042239 51 327 1.0 2.0 0.00 0.00 0.00 48 1009.9
20260506041339 51 316 1.0 3.0 0.00 0.00 0.00 48 1010.1
20260506040439 51 311 1.0 3.0 0.00 0.00 0.00 48 1010.2
20260506035538 50 322 0.0 3.0 0.00 0.00 0.00 52 1010.1
20260506034639 51 0 0.0 0.0 0.00 0.00 0.00 56 1009.8
20260506033739 51 0 0.0 0.0 0.00 0.00 0.00 54 1009.8
20260506032839 51 297 0.0 1.0 0.00 0.00 0.00 54 1009.9
20260506031939 51 0 0.0 0.0 0.00 0.00 0.00 52 1009.6
20260506031039 51 0 0.0 0.0 0.00 0.00 0.00 51 1009.4
20260506030139 51 306 0.0 2.0 0.00 0.00 0.00 50 1009.4
20260506025239 51 327 0.0 1.0 0.00 0.00 0.00 51 1009.3
20260506024339 52 327 0.0 1.0 0.00 0.00 0.00 51 1009.3
20260506023439 52 323 0.0 1.0 0.00 0.00 0.00 50 1009.4
20260506022539 52 318 0.0 1.0 0.00 0.00 0.00 50 1009.5
20260506021639 52 318 0.0 1.0 0.00 0.00 0.00 49 1009.1
20260506020739 52 313 0.0 1.0 0.00 0.00 0.00 49 1009.2
20260506014940 52 310 0.0 1.0 0.00 0.00 0.00 48 1008.7
20260506014039 53 0 0.0 0.0 0.00 0.00 0.00 47 1008.6
20260506013138 53 306 0.0 1.0 0.00 0.00 0.00 45 1008.6
20260506011339 53 343 0.0 1.0 0.00 0.00 0.00 44 1008.4
20260506005539 54 9 0.0 2.0 0.00 0.00 0.00 42 1008.3
20260506004639 54 347 0.0 4.0 0.00 0.00 0.00 43 1008.1
20260506002839 54 316 0.0 3.0 0.00 0.01 0.00 41 1007.9
20260506000139 54 319 2.0 7.0 0.00 0.01 0.00 38 1007.9
20260505235239 54 326 2.0 8.0 0.00 0.01 0.00 38 1007.9
20260505234339 55 324 1.0 4.0 0.00 0.01 0.00 38 1008.0
20260505233439 55 320 2.0 6.0 0.00 0.01 0.00 38 1008.1
20260505232541 55 299 2.0 5.0 0.00 0.01 0.00 36 1008.1
20260505230739 56 310 1.0 3.0 0.00 0.01 0.00 39 1008.1
20260505224939 56 338 1.0 3.0 0.00 0.01 0.00 37 1008.2
20260505224038 56 312 2.0 6.0 0.00 0.01 0.00 36 1008.4
20260505223139 56 332 1.0 4.0 0.00 0.01 0.00 37 1008.4
20260505222239 56 359 1.0 4.0 0.00 0.01 0.00 37 1008.4
20260505221339 56 320 2.0 6.0 0.00 0.01 0.00 35 1008.3
20260505220439 56 307 1.0 4.0 0.00 0.01 0.00 35 1008.2
20260505215538 56 305 1.0 3.0 0.00 0.01 0.00 39 1008.6
20260505214638 56 332 1.0 6.0 0.00 0.01 0.00 35 1008.6
20260505213739 56 310 1.0 6.0 0.00 0.01 0.00 35 1008.6
20260505211939 56 310 2.0 7.0 0.00 0.01 0.00 34 1008.6
20260505211038 56 311 2.0 5.0 0.00 0.01 0.00 34 1008.6
20260505210139 56 292 2.0 9.0 0.00 0.01 0.00 34 1008.5
20260505205238 56 283 1.0 6.0 0.00 0.01 0.00 34 1008.7
20260505204339 56 315 2.0 6.0 0.00 0.01 0.00 34 1008.7
20260505203439 56 325 2.0 10.0 0.00 0.01 0.00 35 1008.7
20260505202538 56 314 1.0 5.0 0.00 0.01 0.00 36 1008.8
20260505200739 56 345 1.0 5.0 0.00 0.01 0.00 38 1008.8
20260505195839 55 307 1.0 5.0 0.00 0.01 0.00 35 1008.9
20260505194038 56 192 1.0 3.0 0.00 0.01 0.00 34 1008.8
20260505193139 56 323 1.0 4.0 0.00 0.01 0.00 35 1008.9
20260505192239 56 240 1.0 6.0 0.00 0.01 0.00 38 1008.9
20260505191339 56 313 1.0 6.0 0.00 0.01 0.00 36 1009.1
20260505190438 56 333 1.0 5.0 0.00 0.01 0.00 39 1009.0
20260505185538 56 204 1.0 3.0 0.00 0.01 0.00 37 1009.1
20260505183739 57 332 1.0 7.0 0.00 0.01 0.00 39 1009.0
20260505182839 57 300 1.0 5.0 0.00 0.01 0.00 42 1009.0
20260505181939 57 299 1.0 4.0 0.00 0.01 0.00 38 1008.7
20260505180138 57 256 1.0 5.0 0.00 0.01 0.00 40 1008.7
20260505175238 56 281 2.0 9.0 0.00 0.01 0.00 38 1008.7
20260505174338 56 314 2.0 5.0 0.00 0.01 0.00 41 1008.5
20260505173438 56 288 1.0 4.0 0.00 0.01 0.00 39 1008.4
20260505172538 56 192 1.0 7.0 0.00 0.01 0.00 38 1008.4
20260505171638 56 269 1.0 7.0 0.00 0.01 0.00 39 1008.5
20260505165838 56 308 2.0 7.0 0.00 0.01 0.00 42 1008.4
20260505164939 56 291 1.0 4.0 0.00 0.01 0.00 46 1008.2
20260505164038 55 322 2.0 7.0 0.00 0.01 0.00 50 1008.2
20260505163138 54 306 2.0 9.0 0.00 0.01 0.00 49 1008.4
20260505162238 54 320 2.0 7.0 0.00 0.01 0.00 51 1008.5
20260505160438 53 308 1.0 5.0 0.00 0.01 0.00 58 1008.4
20260505152838 51 293 1.0 3.0 0.00 0.01 0.00 67 1008.2
20260505151938 50 253 0.0 2.0 0.00 0.01 0.00 68 1008.0
20260505150138 49 304 1.0 3.0 0.00 0.01 0.00 71 1008.1
20260505124638 46 322 0.0 4.0 0.00 0.01 0.00 73 1008.1
20260505123738 46 317 0.0 1.0 0.00 0.01 0.00 75 1008.6
20260505122838 46 0 0.0 0.0 0.00 0.01 0.00 75 1008.2
20260505121938 46 314 0.0 2.0 0.00 0.01 0.00 75 1008.2
20260505121037 47 319 0.0 2.0 0.00 0.01 0.00 73 1008.5
20260505120138 48 330 1.0 4.0 0.00 0.01 0.00 70 1008.8
20260505115238 49 336 1.0 4.0 0.00 0.01 0.00 66 1008.4
20260505114338 50 317 1.0 3.0 0.00 0.01 0.00 60 1007.7
20260505113438 50 317 2.0 4.0 0.00 0.01 0.00 54 1007.3
20260505111638 51 329 1.0 2.0 0.00 0.01 0.00 55 1006.6
20260505110739 51 1 0.0 2.0 0.00 0.01 0.00 55 1006.1
20260505101339 52 309 1.0 5.0 0.00 0.01 0.00 54 1005.3
20260505100439 52 318 2.0 5.0 0.00 0.01 0.00 53 1005.2
20260505095539 53 321 1.0 5.0 0.00 0.01 0.00 57 1005.3
20260505094639 53 318 0.0 2.0 0.00 0.01 0.00 57 1005.5
20260505093739 54 316 0.0 2.0 0.00 0.01 0.00 56 1005.6
20260505091939 54 342 1.0 3.0 0.00 0.01 0.00 55 1005.6
20260505091039 55 318 1.0 4.0 0.00 0.01 0.00 53 1005.4
20260505090139 55 341 1.0 8.0 0.00 0.01 0.00 52 1005.1
20260505085239 55 321 1.0 8.0 0.00 0.01 0.00 50 1004.8
20260505082539 56 326 1.0 5.0 0.00 0.01 0.00 50 1003.9